Location: Civry
(47.2902°N, 4.6156°E)
Time: 19:30:12
(UTC+00:00)

ARGOS - Pass Details

Date: 09 April 2020
Orbit: 820 x 834 km, 98.5° (Epoch: 03 June)

Event Time Altitude Azimuth Distance (km) Brightness Sun altitude
Rises 19:22:28 0° 168° (SSE) 3,357 6.0 -10.4°
Reaches altitude 10° 19:24:49 10° 170° (S) 2,426 5.3 -10.8°
Maximum altitude 19:30:12 77° 256° (WSW) 852 3.3 -11.6°
Drops below altitude 10° 19:35:36 10° 343° (NNW) 2,435 6.2 -12.4°
Sets 19:37:58 0° 345° (NNW) 3,370 7.0 -12.8°
